1339977625755,57.0183
1339977685755,57.0336
1339977745755,57.0629
1339977805755,57.3590
1339977865755,57.0445
1339977925755,57.2428
1339977985755,57.2629
1339978045755,56.9268
1339978105755,57.2683
1339978165755,57.2217
1339978225755,57.0238
1339978285755,57.0731
1339978345755,57.1114
1339978405755,57.0662
1339978465755,57.1286
1339978525755,57.0508
1339978585755,57.0931
1339978645755,57.1736
1339978705755,57.1531
1339978765755,57.0758
1339978825755,57.2104
1339978885755,57.0789
1339978945755,57.0409
1339979005755,56.9998
1339979065755,57.0588
1339979125755,56.9491
1339979185755,57.1145
1339979245755,57.0025
1339979305755,57.0908
1339979365755,57.0728
1339979425755,57.0851
1339979485755,57.0962
1339979545755,56.9886
1339979605755,56.9359
1339979665755,57.0363
1339979725755,57.1128
1339979785755,56.9061
1339979845755,56.8294
1339979905755,57.0793
1339979965755,57.0825
1339980025755,56.9876
1339980085755,57.0164
1339980145755,56.9364
1339980205755,56.9420
1339980265755,57.1055
1339980325755,57.0927
1339980385755,57.0484
1339980445755,57.1581
1339980505755,57.0876
1339980565755,57.2712
1339980625755,57.1656
1339980685755,56.9688
1339980745755,57.1125
1339980805755,56.9970
1339980865755,57.2090
1339980925755,57.0241
1339980985755,57.2010
1339981045755,57.1833
1339981105755,57.2606
1339981165755,57.1690
1339981225766,57.1460
1339981285766,57.0157
1339981345766,56.9865
1339981405766,57.0712
1339981465766,57.1133
1339981525766,57.1996
1339981585766,57.0912
1339981645766,57.2256
1339981705766,57.0922
1339981765766,56.9224
1339981825766,57.1526
1339981885766,57.2497
1339981945766,57.2172
1339982005766,57.3367
1339982065766,57.0936
1339982125766,57.2612
1339982185766,57.3653
1339982245766,57.2811
1339982305766,57.3408
1339982365766,57.2250
1339982425766,57.2114
1339982485766,57.2022
1339982545766,57.2527
1339982605766,57.3500
1339982665766,57.2735
1339982725766,57.1837
1339982785766,57.4030
1339982845766,57.3994
1339982905766,57.2529
1339982965766,57.4937
1339983025766,57.2419
1339983085766,57.4558
1339983145766,57.5761
1339983205766,57.4460
1339983265766,57.4354
1339983325766,57.4354
1339983385766,57.3837
1339983445766,57.2660
1339983505766,57.5130
1339983565766,57.3642
1339983625766,57.5209
1339983685766,57.5029
1339983745766,57.4683
1339983805766,57.5854
1339983865766,57.3108
1339983925766,57.5122
1339983985766,57.5761
1339984045766,57.3049
1339984105766,57.4637
1339984165766,57.3741
1339984225766,57.3792
1339984285766,57.4088
1339984345766,57.4226
1339984405766,57.3620
1339984465766,57.3496
1339984525766,57.4445
1339984585766,57.3289
1339984645766,57.5417
1339984705766,57.6233
1339984765766,57.3485
1339984825776,57.3490
1339984885776,57.5243
1339984945776,57.5409
1339985005776,57.6258
1339985065776,57.5774
1339985125776,57.5299
1339985185776,57.5765
1339985245776,57.4844
1339985305776,57.4028
1339985365776,57.5267
1339985425776,57.5634
1339985485776,57.4725
1339985545776,57.6136
1339985605776,57.5310
1339985665776,57.6839
1339985725776,57.3993
1339985785776,57.5209
1339985845776,57.5504
1339985905776,57.5871
1339985965776,57.4259
1339986025776,57.4580
1339986085776,57.3473
1339986145776,57.4539
1339986205776,57.5062
1339986265776,57.5683
1339986325776,57.4552
1339986385776,57.3851
1339986445776,57.4492
1339986505776,57.3814
1339986565776,57.5311
1339986625776,57.4823
1339986685776,57.4050
1339986745776,57.4557
1339986805776,57.6090
1339986865776,57.5071
1339986925776,57.4601
1339986985776,57.5915
1339987045776,57.4333
1339987105776,57.4987
1339987165776,57.6360
1339987225776,57.5833
1339987285776,57.5762
1339987345776,57.4532
1339987405776,57.5199
1339987465776,57.6434
1339987525776,57.5584
1339987585776,57.5033
1339987645776,57.5431
1339987705776,57.5900
1339987765776,57.4677
1339987825776,57.5229
1339987885776,57.5628
1339987945776,57.5920
1339988005776,57.6402
1339988065776,57.4798
1339988125776,57.5539
1339988185776,57.6529
1339988245776,57.5111
1339988305776,57.6690
1339988365776,57.5778
1339988425786,57.7304
1339988485786,57.5961
1339988545786,57.7190
1339988605786,57.6225
1339988665786,57.6221
1339988725786,57.7296
1339988785786,57.5474
1339988845786,57.8555
1339988905786,57.9272
1339988965786,57.7661
1339989025786,57.9158
1339989085786,57.8766
1339989145786,57.8346
1339989205786,57.7455
1339989265786,57.6925
1339989325786,57.7890
1339989385786,57.7530
1339989445786,57.6832
1339989505786,57.8724
1339989565786,57.8485
1339989625786,57.7726
1339989685786,57.9435
1339989745786,57.8760
1339989805786,58.0177
1339989865786,57.8810
1339989925786,57.6690
1339989985786,57.7668
1339990045786,58.0089
1339990105786,57.7887
1339990165786,58.0712
1339990225786,58.0358
1339990285786,58.4168
1339990345786,58.0534
1339990405786,57.9685
1339990465786,57.9227
1339990525786,57.9422
1339990585786,57.8852
1339990645786,57.8470
1339990705786,58.0894
1339990765786,58.1321
1339990825786,58.0446
1339990885786,58.1178
1339990945786,58.0172
1339991005786,58.1088
1339991065786,58.0224
1339991125786,57.9625
1339991185786,58.0439
1339991245786,58.0866
1339991305786,58.1499
1339991365786,58.9514
1339991425786,58.1895
1339991485786,58.0551
1339991545786,58.0903
1339991605786,57.9811
1339991665786,58.0922
1339991725786,57.9718
1339991785786,58.0597
1339991845786,58.0148
1339991905786,58.1320
1339991965786,58.1815
1339992025796,57.9444
1339992085796,58.1148
1339992145796,58.1516
1339992205796,58.1419
1339992265796,58.0380
1339992325796,58.0029
1339992385796,58.0913
1339992445796,58.1437
1339992505796,58.1651
1339992565796,58.0919
1339992625796,58.0450
1339992685796,58.0016
1339992745796,58.0695
1339992805796,58.0333
1339992865796,58.1334
1339992925796,58.0998
1339992985796,57.9852
1339993045796,57.9798
1339993105796,58.0243
1339993165796,58.0513
1339993225796,58.2392
1339993285796,57.9534
1339993345796,57.9433
1339993405796,57.9913
1339993465796,58.1421
1339993525796,58.1417
1339993585796,58.1001
1339993645796,58.1098
1339993705796,58.1231
1339993765796,58.1931
1339993825796,58.1142
1339993885796,58.1385
1339993945796,58.2337
1339994005796,58.0973
1339994065796,58.2576
1339994125796,58.0825
1339994185796,58.1021
1339994245796,58.1776
1339994305796,58.3327
1339994365796,58.1342
1339994425796,58.1339
1339994485796,58.1389
1339994545796,58.2375
1339994605796,58.0985
1339994665796,58.0106
1339994725796,57.9433
1339994785796,59.2103
1339994845796,58.1044
1339994905796,58.1089
1339994965796,58.1416
1339995025796,58.1618
1339995085796,57.9145
1339995145796,58.1175
1339995205796,58.0100
1339995265796,57.8960
1339995325796,57.9045
1339995385796,58.0279
1339995445796,57.7837
1339995505796,57.9565
1339995565796,57.7737
1339995625805,57.9144
1339995685805,57.8900
1339995745805,57.9694
1339995805805,57.8888
1339995865805,57.9162
1339995925805,57.9820
1339995985805,58.0136
1339996045805,57.9631
1339996105805,57.9175
1339996165805,57.9019
1339996225805,57.9379
1339996285805,57.9970
1339996345805,57.7437
1339996405805,57.8255
1339996465805,57.8371
1339996525805,57.9195
1339996585805,57.7990
1339996645806,57.9347
1339996705806,57.9563
1339996765806,57.9657
1339996825805,57.8999
1339996885805,57.8146
1339996945805,58.0300
1339997005805,57.9161
1339997065805,57.9217
1339997125805,57.8300
1339997185805,57.7957
1339997245805,57.8375
1339997305805,58.0199
1339997365805,57.8433
1339997425805,57.8726
1339997485805,57.9694
1339997545805,57.8514
1339997605805,57.7829
1339997665805,57.8433
1339997725805,57.8512
1339997785805,57.8406
1339997845805,57.7212
1339997905805,57.7698
1339997965806,57.8730
1339998025806,57.9758
1339998085806,57.8386
1339998145805,57.8083
1339998205805,57.6797
1339998265805,57.7387
1339998325805,57.8535
1339998385805,57.8934
1339998445805,57.8038
1339998505805,57.8497
1339998565805,57.6798
1339998625805,57.9306
1339998685805,57.7008
1339998745805,57.8178
1339998805805,57.8564
1339998865805,58.0183
1339998925805,57.9231
1339998985805,58.0470
1339999045805,57.8933
1339999105805,57.8754
1339999165805,58.0136
1339999225815,57.9624
1339999285815,57.9300
1339999345815,57.9306
1339999405815,57.7215
1339999465815,57.9688
1339999525815,57.7782
1339999585815,57.8055
1339999645815,57.9421
1339999705815,57.7570
1339999765815,57.9444
1339999825815,57.6968
1339999885815,57.6872
1339999945815,57.9265
1340000005815,57.7673
1340000065815,57.8222
1340000125815,57.7591
1340000185815,57.8072
1340000245815,57.8489
1340000305815,57.6267
1340000365815,57.7520
1340000425815,57.7643
1340000485815,57.6975
1340000545815,57.9427
1340000605815,57.9498
1340000665815,57.7917
1340000725815,57.8228
1340000785815,57.8742
1340000845815,57.7496
1340000905815,57.7199
1340000965815,57.7918
1340001025815,57.7489
1340001085815,57.7285
1340001145815,57.7235
1340001205815,57.6455
1340001265815,57.7058
1340001325815,57.8195
1340001385815,57.8384
1340001445815,57.5777
1340001505815,57.8997
1340001565815,57.6526
1340001625815,57.7058
1340001685815,57.6340
1340001745815,57.7149
1340001805815,57.5871
1340001865815,57.6905
1340001925815,57.6086
1340001985815,57.5390
1340002045815,57.4357
1340002105815,57.4779
1340002165815,57.8234
1340002225815,57.6553
1340002285815,57.5445
1340002345815,57.5349
1340002405815,57.6581
1340002465815,57.4963
1340002525815,57.4362
1340002585815,57.4134
1340002645815,57.4098
1340002705815,57.4411
1340002765815,57.5093
1340002825824,57.4951
1340002885824,57.4729
1340002945824,57.5229
1340003005825,57.5219
1340003065825,57.5483
1340003125825,57.3442
1340003185825,57.5660
1340003245825,57.3016
1340003305825,57.4860
1340003365825,57.3773
1340003425824,57.2896
1340003485824,57.0497
1340003545824,57.3153
1340003605824,57.4288
1340003665824,57.2018
1340003725824,57.2910
1340003785824,57.2861
1340003845824,57.3699
1340003905824,57.1952
1340003965824,57.1805
1340004025825,57.1616
1340004085824,57.1888
1340004145824,57.1905
1340004205824,57.0820
1340004265824,57.1760
1340004325825,57.2085
1340004385825,57.1949
1340004445825,57.0701
1340004505825,57.0984
1340004565825,57.1788
1340004625825,57.1250
1340004685825,57.1940
1340004745824,56.9240
1340004805824,57.1835
1340004865824,57.2648
1340004925824,57.1682
1340004985824,57.1407
1340005045824,57.0970
1340005105824,57.1169
1340005165824,57.1327
1340005225824,57.1375
1340005285824,57.1990
1340005345825,57.0627
1340005405824,57.1453
1340005465824,57.1211
1340005525824,57.0578
1340005585824,57.1358
1340005645824,57.0531
1340005705825,57.0548
1340005765825,57.0885
1340005825825,57.0230
1340005885825,57.2783
1340005945825,57.0382
1340006005825,57.1888
1340006065825,57.1335
1340006125824,57.1389
1340006185824,56.9772
1340006245824,57.2802
1340006305824,56.9753
1340006365824,57.0852
1340006425834,57.0865
1340006485834,57.2597
1340006545834,57.2654
1340006605834,57.1502
1340006665834,57.1001
1340006725834,57.0919
1340006785834,57.1969
1340006845834,57.3884
1340006905834,57.1796
1340006965834,57.4773
1340007025834,57.2072
1340007085834,57.2297
1340007145834,57.4321
1340007205834,57.1445
1340007265834,57.2493
1340007325834,57.3306
1340007385834,57.3327
1340007445834,57.2168
1340007505834,57.0947
1340007565834,57.2396
1340007625834,57.1960
1340007685834,57.2198
1340007745834,57.3423
1340007805834,57.1833
1340007865834,57.3264
1340007925834,57.2690
1340007985834,57.2126
1340008045834,57.3473
1340008105834,57.2665
1340008165834,57.2932
1340008225834,57.3229
1340008285834,57.2753
1340008345834,57.4117
1340008405834,57.2817
1340008465834,57.1822
1340008525834,57.3091
1340008585834,57.2826
1340008645834,57.4573
1340008705834,57.2920
1340008765834,57.3176
1340008825834,57.2574
1340008885834,57.3353
1340008945834,57.2276
1340009005834,57.2586
1340009065834,57.3156
1340009125834,57.1330
1340009185834,57.2753
1340009245834,57.4266
1340009305834,57.3238
1340009365834,57.2726
1340009425834,57.2768
1340009485834,57.3415
1340009545834,57.1815
1340009605834,57.2921
1340009665834,57.4635
1340009725834,57.3162
1340009785834,57.3080
1340009845834,57.1828
1340009905834,57.3090
1340009965834,57.3257
1340010025843,57.3407
1340010085843,57.4620
1340010145843,57.4348
1340010205843,57.4762
1340010265843,57.2962
1340010325843,57.4129
1340010385843,57.4147
1340010445843,57.4639
1340010505843,57.4209
1340010565843,57.5982
1340010625843,57.3235
1340010685843,57.5050
1340010745843,57.6894
1340010805843,57.6397
1340010865843,57.3476
1340010925843,57.6032
1340010985843,57.5236
1340011045843,57.6332
1340011105843,57.7269
1340011165843,57.8974
1340011225843,57.7272
1340011285843,57.6241
1340011345843,57.8035
1340011405843,57.7322
1340011465843,57.6005
1340011525843,57.7840
1340011585843,57.6694
1340011645843,57.5307
1340011705843,57.7266
1340011765843,57.7095
1340011825843,57.4795
1340011885843,57.6953
1340011945843,57.6874
1340012005843,57.6954
1340012065843,57.7746
1340012125843,57.7191
1340012185843,57.9580
1340012245843,57.7620
1340012305843,57.7936
1340012365843,57.8552
1340012425843,57.7830
1340012485843,57.7155
1340012545843,57.8160
1340012605843,57.7199
1340012665843,57.8326
1340012725843,57.7421
1340012785843,57.7230
1340012845843,57.7798
1340012905843,57.7325
1340012965843,57.7307
1340013025843,57.7496
1340013085843,57.5803
1340013145843,57.8936
1340013205843,57.8344
1340013265843,57.7518
1340013325843,57.8291
1340013385843,57.7434
1340013445843,57.6494
1340013505843,57.7777
1340013565843,57.7215
1340013625853,57.8844
1340013685853,57.8186
1340013745853,57.6158
1340013805853,57.8426
1340013865853,57.7535
1340013925853,57.8092
1340013985853,57.9699
1340014045853,57.8138
1340014105853,57.6676
1340014165853,57.7723
1340014225853,57.8682
1340014285853,57.7423
1340014345853,57.6521
1340014405853,57.7762
1340014465853,57.9348
1340014525853,57.7638
1340014585853,57.7361
1340014645853,57.7191
1340014705853,57.9367
1340014765853,57.5873
1340014825853,57.6155
1340014885853,57.7205
1340014945853,57.7105
1340015005853,57.6287
1340015065853,57.7119
1340015125853,57.6814
1340015185853,57.6638
1340015245853,57.8082
1340015305853,57.8369
1340015365853,57.8571
1340015425853,57.8343
1340015485853,57.9407
1340015545853,57.8315
1340015605853,57.7416
1340015665853,57.8762
1340015725853,57.8338
1340015785853,57.9030
1340015845853,57.6524
1340015905853,57.9008
1340015965853,57.7964
1340016025853,57.6814
1340016085853,57.8362
1340016145853,57.9683
1340016205853,57.8807
1340016265853,57.9792
1340016325853,57.8577
1340016385853,57.6883
1340016445853,57.8071
1340016505853,57.7477
1340016565853,57.8338
1340016625853,57.8209
1340016685853,57.9053
1340016745853,57.9046
1340016805853,57.7930
1340016865853,57.8322
1340016925853,58.0574
1340016985853,57.7186
1340017045853,57.9612
1340017105853,57.9974
1340017165853,57.7572
1340017225862,57.7951
1340017285862,57.9982
1340017345862,57.9860
1340017405862,57.9081
1340017465862,57.9207
1340017525862,58.0918
1340017585862,57.8228
1340017645862,57.9343
1340017705862,57.9262
1340017765862,57.8195
1340017825862,58.0394
1340017885862,57.9526
1340017945862,57.7818
1340018005862,57.9702
1340018065862,57.8578
1340018125862,58.0699
1340018185862,58.0207
1340018245862,58.1027
1340018305862,57.9974
1340018365862,57.8742
1340018425862,57.9112
1340018485862,57.9739
1340018545862,57.7751
1340018605862,57.8467
1340018665862,57.9274
1340018725862,57.8059
1340018785862,57.8777
1340018845862,57.9952
1340018905862,57.9400
1340018965862,58.0481
1340019025862,57.8978
1340019085862,57.8299
1340019145862,57.8628
1340019205862,57.8489
1340019265862,58.0755
1340019325862,57.9152
1340019385862,58.0517
1340019445862,57.7537
1340019505862,57.9161
1340019565862,57.7785
1340019625862,57.8590
1340019685862,57.9325
1340019745862,57.9062
1340019805862,57.8757
1340019865862,57.8916
1340019925862,57.9136
1340019985862,57.9410
1340020045862,57.9989
1340020105862,57.8777
1340020165862,58.1283
1340020225862,57.8464
1340020285862,57.8971
1340020345862,58.0268
1340020405862,58.0179
1340020465862,57.9956
1340020525862,58.1365
1340020585862,58.0622
1340020645862,58.0854
1340020705862,58.0335
1340020765862,57.9966
1340020825855,58.0479
1340020885855,58.0409
1340020945855,57.7529
1340021005855,57.8349
1340021065855,58.0262
1340021125855,58.0046
1340021185855,58.0134
1340021245855,57.9482
1340021305855,57.9747
1340021365855,58.0662
1340021425855,57.8914
1340021485855,58.0070
1340021545855,58.0858
1340021605855,58.0630
1340021665855,57.9785
1340021725855,58.0708
1340021785855,58.0003
1340021845855,58.0501
1340021905855,58.0016
1340021965855,58.1015
1340022025855,58.1754
1340022085855,57.9759
1340022145855,57.9385
1340022205855,58.1555
1340022265855,57.9531
1340022325855,58.1244
1340022385855,57.8321
1340022445855,57.8588
1340022505855,57.9570
1340022565855,57.9121
1340022625855,58.0072
1340022685855,57.8917
1340022745855,57.9906
1340022805855,58.0354
1340022865855,58.1602
1340022925855,58.3158
1340022985855,58.0366
1340023045855,58.1114
1340023105855,58.1450
1340023165855,58.0871
1340023225855,58.2678
1340023285855,58.1978
1340023345855,58.1482
1340023405855,58.2707
1340023465855,58.2414
1340023525855,58.2370
1340023585855,58.2489
1340023645855,58.3275
1340023705855,58.2111
1340023765855,58.2201
1340023825855,58.2778
1340023885855,58.4135
1340023945855,58.1711
1340024005855,58.3710
1340024065855,58.3099
1340024125855,58.3556
1340024185855,58.2604
1340024245855,58.3669
1340024305855,58.3017
1340024365855,58.4497
1340024425864,58.1048
1340024485864,58.4568
1340024545864,58.2472
1340024605864,58.3043
1340024665864,58.3364
1340024725864,58.5584
1340024785864,58.4470
1340024845864,58.1625
1340024905864,58.3624
1340024965864,58.4274
1340025025864,58.1984
1340025085864,58.3340
1340025625864,58.3212
1340025685864,58.4873
1340025745864,58.5903
1340025805864,58.3863
1340025865864,58.5418
1340025925864,58.4285
1340025985864,58.4379
1340026045864,58.6059
1340026105864,58.4584
1340026165864,58.5033
1340026225864,58.4071
1340026285864,58.4006
1340026345864,58.6777
1340026405864,58.5906
1340026465864,58.4737
1340026525864,58.5476
1340026585864,58.4701
1340026645864,58.4782
1340026705864,58.4796
1340026765864,58.7047
1340026825864,58.5540
1340026885864,58.3692
1340026945864,58.4081
1340027005864,58.4584
1340027065864,58.4814
1340027125864,58.6509
1340027185864,58.4931
1340027245864,58.5325
1340027305864,58.5343
1340027365864,58.5785
1340027425864,58.6471
1340027485864,58.5710
1340027545864,58.5511
1340027605864,58.6524
1340027665864,58.5236
1340027725864,58.4300
1340027785864,58.6871
1340027845864,58.5741
1340027905864,58.6884
1340027965864,58.6046
1340028025873,58.6549
1340028085873,58.8206
1340028145873,58.5934
1340028205873,58.6610
1340028265873,58.6270
1340028325873,58.6381
1340028385873,58.7156
1340028445873,58.5333
1340028505873,58.7920
1340028565873,58.6794
1340028625873,58.8156
1340028685873,58.8766
1340028745873,58.5002
1340028805873,58.6303
1340028865873,58.7086
1340028925873,58.7898
1340028985873,58.7342
1340029045873,58.7435
1340029105873,58.7234
1340029165873,58.5890
1340029225873,58.7734
1340029285873,58.8056
1340029345873,58.5082
1340029405873,58.8375
1340029465873,58.7273
1340029525873,58.8153
1340029585873,58.6593
1340029645873,58.6122
1340029705873,58.8323
1340029765873,58.7433
1340029825873,58.8066
1340029885873,58.8445
1340029945873,58.7471
1340030005873,58.8273
1340030065873,58.9427
1340030125873,58.7137
1340030185873,58.6372
1340030245873,58.6231
1340030305873,58.8220
1340030365873,58.6396
1340030425873,58.5887
1340030485873,58.7362
1340030545873,58.5108
1340030605873,58.5932
1340030665873,58.9140
1340030725873,58.7447
1340030785873,58.7649
1340030845873,58.6863
1340030905873,58.7823
1340030965873,58.7022
1340031025873,58.8928
1340031085873,58.8491
1340031145873,58.7611
1340031205873,58.6756
1340031265873,58.8825
1340031325873,58.7061
1340031385873,58.7288
1340031445873,58.7055
1340031505873,58.6869
1340031565873,58.7039
1340031625883,58.7189
1340031685883,58.9078
1340031745883,58.6060
1340031805883,58.7625
1340031865883,58.7964
1340031925883,58.7507
1340031985883,58.7255
1340032045883,58.7991
1340032105883,58.7618
1340032165883,58.7170
1340032225883,58.7955
1340032285883,58.8022
1340032345883,58.7260
1340032405883,58.7479
1340032465883,58.6635
1340032525883,58.5514
1340032585883,58.5479
1340032645883,58.6850
1340032705883,58.7338
1340032765883,58.7851
1340032825883,58.6937
1340032885883,58.7130
1340032945883,58.7107
1340033005883,58.7041
1340033065883,58.9169
1340033125883,58.6115
1340033185883,58.6198
1340033245883,58.6683
1340033305883,58.8041
1340033365883,58.4668
1340033425883,58.7799
1340033485883,58.8177
1340033545883,58.6919
1340033605883,58.6496
1340033665883,58.6655
1340033725883,58.6108
1340033785883,58.7488
1340033845883,58.6739
1340033905883,58.6575
1340033965883,58.7246
1340034025883,58.7780
1340034085883,58.7747
1340034145883,58.6911
1340034205883,58.7539
1340034265883,58.7416
1340034325883,58.8305
1340034385883,58.7625
1340034445883,58.8506
1340034505883,58.8967
1340034565883,58.9120
1340034625883,58.8460
1340034685883,58.7769
1340034745883,58.8686
1340034805883,58.7280
1340034865883,58.9090
1340034925883,58.9199
1340034985883,58.9048
1340035045883,58.7757
1340035105883,58.8048
1340035165883,58.8142
1340035225892,58.7508
1340035285892,58.8816
1340035345892,58.7122
1340035405892,58.8059
1340035465892,58.9676
1340035525892,58.8347
1340035585892,58.9420
1340035645892,58.8331
1340035705892,58.9053
1340035765892,58.8302
1340035825892,58.9794
1340035885892,58.9773
1340035945892,58.9032
1340036005892,58.8138
1340036065892,58.9456
1340036125892,58.9459
1340036185892,58.9340
1340036245892,58.9260
1340036305892,58.8829
1340036365892,58.8851
1340036425892,58.8554
1340036485892,59.0053
1340036545892,58.9448
1340036605892,59.0408
1340036665892,58.8705
1340036725892,58.9662
1340036785892,59.1028
1340036845892,58.9502
1340036905892,58.8856
1340036965892,58.8825
1340037025892,59.0711
1340037085892,58.9321
1340037145892,59.1389
1340037205892,59.1124
1340037265892,58.9833
1340037325892,59.0761
1340037385892,59.0267
1340037445892,59.2429
1340037505892,59.0867
1340037565892,59.1147
1340037625892,59.2853
1340037685892,58.9622
1340037745892,59.2449
1340037805892,59.1827
1340037865892,59.1595
1340037925892,59.1904
1340037985892,59.3483
1340038045892,59.2114
1340038105892,59.2266
1340038165892,59.1877
1340038225892,59.2451
1340038285892,59.2481
1340038345892,59.1684
1340038405892,59.3055
1340038465892,59.1855
1340038525892,59.3003
1340038585892,59.0766
1340038645892,59.2482
1340038705892,59.3266
1340038765892,59.3733
1340038825902,59.2364
1340038885902,59.3228
1340038945902,59.3218
1340039005902,59.1943
1340039065902,59.2334
1340039125902,59.2130
1340039185902,59.3162
1340039245902,59.2002
1340039305902,59.3779
1340039365902,59.3097
1340039425902,59.3399
1340039485902,59.2585
1340039545902,59.4026
1340039605902,59.1776
1340039665902,59.2127
1340039725902,59.1911
1340039785902,59.3574
1340039845902,59.2300
1340039905902,59.3708
1340039965902,59.3305
1340040025902,59.3149
1340040085902,59.2051
1340040145902,59.3149
1340040205902,59.1900
1340040265902,59.3839
1340040325902,59.3506
1340040385902,59.2222
1340040445902,59.1732
1340040505902,59.2439
1340040565902,59.3757
1340040625902,59.2203
1340040685902,59.3372
1340040745902,59.1353
1340040805902,59.0842
1340040865902,59.0523
1340040925902,59.0338
1340040985902,59.2604
1340041045902,59.2313
1340041105902,59.1135
1340041165902,59.1700
1340041225902,59.3136
1340041285902,59.1182
1340041345902,59.1750
1340041405902,59.2955
1340041465902,59.0934
1340041525902,59.1883
1340041585902,59.1162
1340041645902,59.2078
1340041705902,58.9595
1340041765902,59.1250
1340041825902,59.0790
1340041885902,59.0453
1340041945902,59.1573
1340042005902,59.0605
1340042065902,58.9958
1340042125902,59.0700
1340042185902,59.1911
1340042245902,59.0132
1340042305902,59.0947
1340042365902,59.2692
1340042425912,59.0943
1340042485912,59.0199
1340042545912,59.0464
1340042605912,59.0465
1340042665912,58.9834
1340042725912,58.9257
1340042785912,59.0299
1340042845912,59.0873
1340042905912,58.9156
1340042965912,59.2320
1340043025912,59.1196
1340043085912,59.0952
1340043145912,59.0815
1340043205912,58.9386
1340043265912,58.9374
1340043325912,58.8882
1340043385912,59.1534
1340043445912,58.9153